Regional Weather Roundup
Issued by NWS

Home | Current Version | Previous Version | Text Only | Print | Product List | Glossary On
Versions: 1 2 3 4 5 6 7 8 9 10 11 12 13 14 15 16 17 18 19 20 21 22 23 24 25 26 27 28 29 30 31 32 33 34 35 36 37 38 39 40 41 42 43 44 45 46 47 48 49 50
000
ASUS43 KLSX 280259
RWRMO

WEATHER SUMMARY FOR MISSOURI
NATIONAL WEATHER SERVICE SPRINGFIELD MO
1000 PM CDT WED MAY 27 2015

NOTE: "FAIR" INDICATES FEW OR NO CLOUDS BELOW 12,000 FEET WITH NO
       SIGNIFICANT WEATHER AND/OR OBSTRUCTIONS TO VISIBILITY.
       CURRENT SKY AND/OR WEATHER CONDITIONS ARE NOT AVAILABLE FOR
       CHILLICOTHE AND FARMINGTON.

MOZ001>031-035>038-043-044-053-054-280400-
...NORTHERN AND WESTERN MISSOURI...

CITY           SKY/WX    TMP DP  RH WIND       PRES   REMARKS
KANSAS CTY INT MOCLDY    69  55  60 SE6       30.08R
KANSAS C DTWN  MOCLDY    75  53  46 SE5       30.07R
LEE`S SUMMIT   MOCLDY    71  54  54 SE6       30.09R
ST JOSEPH      MOCLDY    68  58  70 CALM      30.07R

$$
MOZ066>068-077>081-088>096-101>105-280400-
...SOUTHWEST MISSOURI...

CITY           SKY/WX    TMP DP  RH WIND       PRES   REMARKS
SPRINGFIELD    PTCLDY    69  63  81 CALM      30.09R
JOPLIN         CLOUDY    71  67  87 E3        30.07R

$$
MOZ032>034-039>042-045>050-055>058-069>072-280400-
...CENTRAL MISSOURI...

CITY           SKY/WX    TMP DP  RH WIND       PRES   REMARKS
COLUMBIA       CLEAR     68  60  75 E6        30.11R
JEFFERSON CITY CLEAR     68  60  75 CALM      30.09R
ROLLA          CLEAR     64  59  83 CALM      30.10R
SEDALIA        PTCLDY    69  60  73 SE3       30.11R
OSAGE BEACH    CLEAR     64  57  77 CALM      30.10S

$$
MOZ051-052-059>065-280400-
...EAST CENTRAL MISSOURI...

CITY           SKY/WX    TMP DP  RH WIND       PRES   REMARKS
ST LOUIS INTL  PTCLDY    72  57  59 NE5       30.11R
SPIRIT OF STL  CLEAR     66  62  87 CALM      30.09R
ST CHARLES     CLEAR     66  60  81 NE7       30.09S

$$
MOZ072>076-082>087-097>100-106>115-280400-
...SOUTH CENTRAL AND SOUTHEAST MISSOURI...

CITY           SKY/WX    TMP DP  RH WIND       PRES   REMARKS
CAPE GIRARDEAU MOCLDY    71  69  93 SE8       30.11R
FARMINGTON     CLOUDY    73  64  73 NE3       30.15R
POPLAR BLUFF   PTCLDY    73  68  84 S7        30.09R
WEST PLAINS    CLOUDY    71  63  75 N5        30.13R

$$


USA.gov is the U.S. government's official web portal to all federal, state and local government web resources and services.